This demonstration page uses our WeatherBlox Daily Observations layout. Learn more.

Left ArrowRight Arrow

Hourly Observations for June 17, 2017

Temp ( °F °C ) Dew Point ( °F °C ) Humidity (%) Winds ( mph kmh ) Pressure ( in mb ) Visibility ( mi km ) Precip ( " mm )
12:37 am 00:37 Cloudy with Mist and Fog 74 23.3 71 21.7 91 91 S 3 6 29.91 1013 3 5 0.00 0.03
12:58 am 00:58 Cloudy with Mist and Fog 74 23.3 71 21.7 91 91 S 3 6 29.91 1013 2 3 0.00 0.03
1:02 am 01:02 Cloudy with Mist and Fog 74 23.3 71 21.7 91 91 S 3 6 29.91 1013 1 2 0.00 0.00
1:10 am 01:10 Cloudy with Light Rain 74 23.3 71 21.7 91 91 S 3 6 29.91 1013 5 8 0.01 0.25
1:59 am 01:59 Cloudy with Mist and Fog 73 22.8 70 21.1 90 90 S 5 7 29.90 1013 5 8 0.01 0.25
2:59 am 02:59 Mostly Cloudy with Mist and Fog 73 22.8 70 21.1 90 90 Calm 29.91 1013 5 8 0.00 0.00
3:59 am 03:59 Mostly Clear 73 22.8 70 21.1 90 90 Calm 29.91 1013 7 11 0.00 0.00
4:59 am 04:59 Mostly Clear 73 22.8 70 21.1 90 90 S 3 6 29.91 1013 7 11 0.00 0.00
5:59 am 05:59 Partly Cloudy with Mist and Fog 72 22.2 70 21.1 94 94 SSE 3 6 29.91 1013 5 8 0.00 0.00
6:56 am 06:56 Mostly Cloudy with Fog 73 23 72 22 94 94 S 6 9 29.94 1014 1 1 0.00 0.00
6:59 am 06:59 Mostly Cloudy with Fog 74 23.3 71 21.7 91 91 S 7 11 29.93 1014 1 1 0.00 0.00
7:59 am 07:59 Cloudy with Mist and Fog 76 24.4 73 22.8 91 91 SSW 7 11 29.94 1014 4 6 0.00 0.00
8:54 am 08:54 Partly Cloudy with Mist and Fog 77 25 73 23 89 89 SSW 7 11 29.97 1015 6 10 0.00 0.00
8:59 am 08:59 Partly Cloudy with Mist and Fog 78 25.6 74 23.3 87 87 VRB 6 9 29.96 1015 6 10 0.00 0.00
9:59 am 09:59 Mostly Cloudy 82 27.8 75 23.9 79 79 SW 6 9 29.96 1014 7 11 0.00 0.00
10:56 am 10:56 Mostly Cloudy with Light Rain 79 26 72 22 79 79 WSW 9 15 29.97 1015 1 2 0.07 1.78
10:59 am 10:59 Mostly Cloudy with Heavy Rain 77 25 71 21.7 82 82 SW 9 15 29.96 1015 1 1 0.19 4.83
11:15 am 11:15 Mostly Cloudy with Light Rain 78 25.6 74 23.3 87 87 S 7 11 29.94 1014 3 5 0.08 2.03
11:59 am 11:59 Mostly Cloudy 83 28.3 74 23.3 74 74 VRB 5 7 29.94 1014 9 14 0.08 2.03
12:44 pm 12:44 Cloudy with Thunderstorms 80 26.7 72 22.2 76 76 W 18 30 29.94 1014 2 2 0.07 1.78
12:49 pm 12:49 Cloudy with Strong Thunderstorms 82 27.8 71 21.7 69 69 WSW 14 22 29.94 1014 1 1 0.00 0.00
12:54 pm 12:54 Cloudy with Strong Thunderstorms 76 24.4 71 21.7 85 85 SSW 8 13 29.94 1014 0 0 0.13 3.30
12:59 pm 12:59 Cloudy with Thunderstorms 77 25 73 23 89 89 undefined N/A 29.94 1014 0 0 0.00 0.00
1:03 pm 13:03 Cloudy with Thunderstorms 77 25 74 23.3 90 90 W 3 6 29.94 1014 1 1 0.00 0.03
1:05 pm 13:05 Cloudy with Thunderstorms 77 25 74 23.3 90 90 Calm 29.94 1014 3 4 0.00 0.03
1:17 pm 13:17 Cloudy with Thunderstorms 78 25.6 75 23.9 90 90 S 3 6 N/A 2 3 0.00 0.03
1:59 pm 13:59 Mostly Cloudy 81 27.2 75 23.9 82 82 SE 5 7 29.93 1013 10 16 0.00 0.03
2:59 pm 14:59 Mostly Cloudy 79 26.1 72 22.2 79 79 SSE 3 6 29.93 1014 9 14 0.00 0.03
3:59 pm 15:59 Mostly Cloudy with Light Rain 81 27.2 73 22.8 77 77 SE 6 9 29.91 1013 8 13 0.00 0.03
4:59 pm 16:59 Cloudy 81 27.2 75 23.9 82 82 ESE 6 9 29.90 1012 10 16 0.00 0.03
5:59 pm 17:59 Mostly Cloudy 82 27.8 75 23.9 79 79 S 3 6 29.90 1013 10 16 0.00 0.00
6:59 pm 18:59 Mostly Cloudy 81 27.2 72 22.2 74 74 S 6 9 29.90 1013 10 16 0.00 0.00
7:59 pm 19:59 Mostly Cloudy with Light Rain 80 26.7 73 22.8 79 79 S 8 13 29.90 1013 9 14 0.00 0.03
8:59 pm 20:59 Mostly Cloudy with Light Rain 79 26.1 74 23.3 85 85 SSW 7 11 29.91 1013 7 11 0.03 0.76
9:59 pm 21:59 Cloudy with Light Rain 78 25.6 74 23.3 87 87 S 3 6 29.93 1014 7 11 0.02 0.51
10:59 pm 22:59 Mostly Cloudy 77 25 73 22.8 88 88 S 7 11 29.94 1014 7 11 0.00 0.03
11:59 pm 23:59 Mostly Cloudy 77 25 72 22.2 85 85 S 6 9 29.94 1014 7 11 0.00 0.00

Powered by AerisWeather